{"data":{"norad_id":68680,"epoch":"2026-09-19T21:29:49.967808Z","epoch_age_seconds":95977,"freshness":"FRESH","line1":"1 68680U 26077U   26262.89571722  .00017226  00000+0  53441-3 0  9996","line2":"2 68680  97.2849 132.8499 0002827  94.5463 265.6103 15.33457856 24922","mean_motion":15.33457856,"eccentricity":0.0002827,"inclination_deg":97.2849,"raan_deg":132.8499,"arg_perigee_deg":94.5463,"mean_anomaly_deg":265.6103,"bstar":0.00053441,"rev_number":2492,"period_min":93.905417378487,"perigee_km":463.57022676232,"apogee_km":467.43962190634,"semimajor_km":6843.6419243343,"source":"CELESTRAK","updated_at":"2026-09-20T09:00:43.953796Z"}}